, AK

(GMT )
Shemya

Weather History for PASY - March, 2013

Change the Weather History Date:

Sunday, March 10, 2013

  Actual Average Record
Temperature  
Mean Temperature 37 °F -  
Max Temperature 39 °F 34 °F 41 °F (2018)
Min Temperature 35 °F 27 °F 1 °F (2016)
Degree Days  
Heating Degree Days 28    
Moisture  
Dew Point 34 °F    
Average Humidity 90    
Maximum Humidity 100    
Minimum Humidity 80    
Precipitation  
Precipitation 0.00 in - - ()
Sea Level Pressure  
Sea Level Pressure 29.66 in    
Wind  
Wind Speed 33 mph (SE)    
Max Wind Speed 46 mph    
Max Gust Speed 51 mph    
Visibility 8 miles    
Events Rain , Snow    
Averages and records for this station are not official NWS values.
T = Trace of Precipitation, MM = Missing Value Source: NWS Daily Summary

Daily Weather History Graph

Daily Weather History Graph

Search for Another Location

Airport or City:

Astronomy

Mar. 09, 2013 Rise Set
Actual Time 8:50 AM HST 8:18 PM HST
Civil Twilight 8:16 AM HST 8:52 PM HST
Nautical Twilight 7:36 AM HST 9:32 PM HST
Astronomical Twilight 6:56 AM HST 10:13 PM HST
Moon 9:00 AM HDT (3/10) 8:46 PM HDT (3/10)
Length of Visible Light 12h 35m
Length of Day
11h 27m
Waning Crescent, 1% of the Moon is Illuminated
Mar 10
Waning Crescent
Mar 11
New
Mar 19
First Quarter
Mar 27
Full
Apr 2
Last Quarter

Hourly Weather History & Observations

Time (HDT) Temp. Windchill Dew Point Humidity Pressure Visibility Wind Dir Wind Speed Gust Speed Precip Events Conditions
12:07 AM 37.4 °F 23.6 °F 35.6 °F 93% 29.54 in 6.0 mi ESE 38.0 mph 50.6 mph N/A   Overcast
12:56 AM 39.0 °F 25.4 °F 36.0 °F 89% 29.53 in 7.0 mi ESE 41.4 mph 50.6 mph N/A   Overcast
1:56 AM 37.9 °F 23.3 °F 37.0 °F 97% 29.52 in 5.0 mi ESE 46.0 mph 50.6 mph N/A Snow Light Snow
3:56 AM 39.0 °F 25.1 °F 37.9 °F 96% 29.51 in 5.0 mi ESE 43.7 mph 50.6 mph N/A   Overcast
4:56 AM 39.0 °F 25.3 °F 37.9 °F 96% 29.50 in 5.0 mi ESE 42.6 mph 47.2 mph N/A   Overcast
5:56 AM 37.0 °F 24.9 °F 37.0 °F 100% 29.48 in 8.0 mi SSE 27.6 mph 39.1 mph N/A   Overcast
6:19 AM 35.6 °F 24.5 °F 33.8 °F 93% 29.51 in 10.0 mi South 20.7 mph - N/A   Partly Cloudy
6:56 AM 35.1 °F 23.5 °F 34.0 °F 96% 29.54 in 9.0 mi South 21.9 mph 27.6 mph N/A   Partly Cloudy
7:12 AM 35.6 °F 23.4 °F 33.8 °F 93% 29.56 in 10.0 mi South 25.3 mph 32.2 mph N/A   Mostly Cloudy
7:56 AM 35.1 °F 23.0 °F 32.0 °F 89% 29.58 in 10.0 mi SSE 24.2 mph 31.1 mph N/A   Overcast
8:06 AM 35.6 °F 23.4 °F 32.0 °F 87% 29.58 in 10.0 mi SSE 25.3 mph - N/A   Overcast
8:56 AM 36.0 °F 23.7 °F 32.0 °F 86% 29.63 in 10.0 mi SSE 26.5 mph 35.7 mph N/A   Overcast
9:56 AM 36.0 °F 24.4 °F 32.0 °F 86% 29.64 in 10.0 mi SSE 23.0 mph 33.4 mph N/A   Mostly Cloudy
10:28 AM 35.6 °F 24.0 °F 32.0 °F 87% 29.65 in 6.2 mi SE 23.0 mph - N/A   Scattered Clouds
10:56 AM 36.0 °F 23.5 °F 33.1 °F 89% 29.65 in 9.0 mi SE 27.6 mph - N/A   Scattered Clouds
11:56 AM 37.0 °F 25.1 °F 33.1 °F 86% 29.66 in 10.0 mi SE 26.5 mph - N/A   Mostly Cloudy
12:54 PM 37.4 °F 25.6 °F 33.8 °F 87% 29.66 in 6.2 mi SE 26.5 mph - N/A   Mostly Cloudy
12:56 PM 37.0 °F 25.1 °F 34.0 °F 89% 29.67 in 9.0 mi SE 26.5 mph - N/A   Mostly Cloudy
1:29 PM 37.4 °F 25.6 °F 35.6 °F 93% 29.68 in 6.2 mi SE 26.5 mph - N/A   Overcast
1:56 PM 37.0 °F 24.9 °F 35.1 °F 93% 29.68 in 6.0 mi SE 27.6 mph - N/A   Overcast
2:56 PM 37.0 °F 26.2 °F 35.1 °F 93% 29.68 in 7.0 mi SSE 21.9 mph - N/A   Overcast
3:56 PM 37.9 °F 25.5 °F 33.1 °F 83% 29.70 in 10.0 mi SSE 31.1 mph 40.3 mph N/A   Overcast
4:56 PM 37.0 °F 24.7 °F 34.0 °F 89% 29.72 in 10.0 mi SSE 28.8 mph 38.0 mph N/A   Overcast
5:56 PM 37.0 °F 25.4 °F 34.0 °F 89% 29.74 in 9.0 mi SSE 25.3 mph - N/A   Overcast
6:56 PM 37.0 °F 25.6 °F 33.1 °F 86% 29.76 in 9.0 mi SSE 24.2 mph 29.9 mph N/A   Overcast
7:56 PM 37.0 °F 23.7 °F 34.0 °F 89% 29.76 in 9.0 mi SE 34.5 mph 41.4 mph N/A   Overcast
8:39 PM 37.4 °F 25.0 °F 33.8 °F 87% 29.78 in 6.2 mi SSE 29.9 mph 36.8 mph N/A   Overcast
8:56 PM 37.0 °F 23.5 °F 34.0 °F 89% 29.76 in 7.0 mi SSE 35.7 mph 46.0 mph N/A Rain Light Rain
9:10 PM 37.4 °F 24.2 °F 33.8 °F 87% 29.76 in 6.2 mi SSE 34.5 mph 47.2 mph N/A Rain Light Rain
9:19 PM 37.4 °F 23.8 °F 33.8 °F 87% 29.76 in 6.2 mi SSE 36.8 mph 44.9 mph N/A Rain Light Rain
9:56 PM 37.0 °F 22.8 °F 34.0 °F 89% 29.79 in 8.0 mi SSE 40.3 mph 47.2 mph N/A   Overcast
10:56 PM 37.0 °F 22.8 °F 34.0 °F 89% 29.81 in 8.0 mi SSE 40.3 mph 49.5 mph N/A   Overcast
11:56 PM 37.9 °F 24.1 °F 34.0 °F 86% 29.81 in 8.0 mi SE 40.3 mph 46.0 mph N/A   Overcast
12:56 AM 39.0 °F 25.9 °F 35.1 °F 86% 29.83 in 8.0 mi SSE 38.0 mph 47.2 mph N/A   Overcast